Regional Weather Roundup
Issued by NWS

Home | Current Version | Previous Version | Graphics & Text | Print | Product List | Glossary Off
Versions: 1 2 3 4 5 6 7 8 9 10 11 12 13 14 15 16 17 18 19 20 21 22 23 24 25 26 27 28 29 30 31 32 33 34 35 36 37 38 39 40 41 42 43 44 45 46 47 48 49

000
ASUS43 KDMX 281107
RWRIA

WEATHER ROUNDUP FOR IOWA
NATIONAL WEATHER SERVICE DES MOINES IA
600 AM CDT FRI AUG 28 2015

NOTE: "FAIR" INDICATES FEW OR NO CLOUDS BELOW 12,000 FEET WITH NO
SIGNIFICANT WEATHER AND/OR OBSTRUCTIONS TO VISIBILITY.

* - THESE STATIONS ARE NOT NWS STATIONS...THUS NOT UNDER NWS
QUALITY CONTROL.  THEY ALSO DO NOT REPORT WEATHER SUCH
AS PRECIPITATION OR FOG.

IAZ001>003-012>014-020>022-031>034-043>046-281200-
   NORTHWEST IOWA

CITY           SKY/WX    TMP DP  RH WIND       PRES   REMARKS
CARROLL *      RAIN      63  63 100 SE17G26   29.92F
CHEROKEE *     RAIN      64  64 100 E10       29.87F
DENISON *      RAIN      64  64 100 VRB9G32   29.83S
LE MARS *      DRIZZLE   64  64 100 E10G20    29.85F
ORANGE CITY *  HVY RAIN  64  64 100 E12       29.87F
SHELDON *      CLOUDY    63  63 100 E12G18    29.89F FOG
SIOUX CITY     LGT RAIN  66  63  90 E14       29.81F
SPENCER        CLOUDY    63  61  93 E14       29.93F
STORM LAKE *   RAIN      63  63 100 E20G29    29.88F
$$

IAZ055>058-069>071-079>083-090>094-281200-
   SOUTHWEST IOWA

CITY           SKY/WX    TMP DP  RH WIND       PRES   REMARKS
ATLANTIC *     LGT RAIN  66  64  94 SE16G24   29.86F
AUDUBON *      HVY RAIN  63  61  94 SE9G16    29.92S
CLARINDA *     CLOUDY    66  66 100 SE12      29.91F
COUNCIL BLFS * CLOUDY    66  66 100 SE14G22   29.83F
CRESTON *      RAIN      63  63 100 SE13      29.97F
HARLAN  *      CLOUDY    66  66 100 SE18G29   29.87F
LAMONI         CLOUDY    65  61  87 E8        29.96F
RED OAK *      CLOUDY    66  66 100 S18G26    29.87F
SHENANDOAH *   CLOUDY    68  66  94 SE17G24   29.86F
$$

IAZ047>049-059>061-072>074-084-281200-
   CENTRAL IOWA

CITY           SKY/WX    TMP DP  RH WIND       PRES   REMARKS
AMES           RAIN      62  61  96 SE6       30.01F FOG
ANKENY *       LGT RAIN  64  63  94 SE7       30.01R
CHARITON *     CLOUDY    63  61  94 SE12G17   30.00F
DES MOINES     LGT RAIN  64  60  87 SE9       30.00R
GRINNELL*      RAIN      61  59  94 E10       30.04F
KNOXVILLE *    CLOUDY    63  59  88 SE12G18   30.00F
MARSHALLTOWN   CLOUDY    61  59  93 E13       30.02F
PELLA *        DRIZZLE   61  61 100 E9        30.03F
PERRY *        RAIN      63  63 100 SE13G21   29.98S
$$

IAZ004>006-015-016-023>025-035-036-281200-
   NORTH CENTRAL IOWA

CITY           SKY/WX    TMP DP  RH WIND       PRES   REMARKS
ALGONA *       RAIN      63  63 100 SE10      29.99F
CLARION *      CLOUDY    63  61  94 SE13      30.01F FOG
ESTHERVILLE    LGT RAIN  62  61  96 SE12      29.97F
FORT DODGE *   CLOUDY    63  57  82 E14       29.98F
MASON CITY     RAIN      61  60  97 SE6       30.05S FOG
FOREST CITY *  RAIN      61  61 100 SE7       30.03S
IOWA FALLS *   LGT RAIN  63  61  94 SE3       30.04F
$$

IAZ007>011-017>019-026>030-037>042-050>054-066-281200-
   NORTHEAST IOWA

CITY           SKY/WX    TMP DP  RH WIND       PRES   REMARKS
CEDAR RAPIDS   CLOUDY    58  58 100 E5        30.08F
CHARLES CITY * MOCLDY    61  61 100 S8        30.07R
CLINTON *      CLOUDY    59  55  88 E3        30.12S
DECORAH *      CLOUDY    61  59  94 S3        30.06R
DUBUQUE        CLOUDY    59  58  96 SW5       30.10S
MONTICELLO *     N/A    N/A N/A N/A MISG        N/A
OELWEIN *        N/A     61  59  94 SE5       30.08S
WATERLOO       LGT RAIN  62  60  93 SE10      30.05F FOG
$$

IAZ064-065-067-068-078-281200-
   EAST CENTRAL IOWA

CITY           SKY/WX    TMP DP  RH WIND       PRES   REMARKS
DAVENPORT      CLOUDY    59  57  93 CALM      30.11R
IOWA CITY      CLOUDY    60  58  92 CALM      30.11R
MT. PLEASANT * CLOUDY    63  57  82 CALM      30.10R
MUSCATINE *    CLEAR     59  57  94 CALM      30.10R
QUAD CITIES    CLOUDY    61  57  87 CALM      30.09R
$$

IAZ062-063-075>077-085>089-095>099-281200-
   SOUTHEAST IOWA

CITY           SKY/WX    TMP DP  RH WIND       PRES   REMARKS
BURLINGTON     CLOUDY    61  58  90 S3        30.07S
FAIRFIELD *    MOCLDY    59  57  94 CALM      30.09R
FORT MADISON * CLEAR     61  57  88 S3        30.08R
KEOKUK *       CLEAR     63  59  88 SE5       30.05S
OSKALOOSA *    LGT RAIN  61  59  94 E5        30.06F
CENTERVILLE *  MOCLDY    61  59  94 E8        30.06F
OTTUMWA        CLOUDY    61  60  97 E7        30.05F
WASHINGTON *     N/A    N/A N/A N/A MISG        N/A
$$

ABBREVIATIONS USED IN REMARKS
   TC - TEMPERATURES IN CELSIUS
  WCI - WIND CHILL INDEX
   HX - HEAT INDEX
  VSB - VISIBILITY
$$



USA.gov is the U.S. government's official web portal to all federal, state and local government web resources and services.